User: anonymous   Login
Location: *
(50.3194°N, 7.1067°E)
Time: 13:58:22
(UTC+00:00)
Language:

Cosmos 1741 Rocket - Orbit

View from above orbital plane
View from above orbital plane
View from above satellite
View from above satellite

Ground track
Ground track

The orbit data is extracted from the following two-line orbital elements,

1 16682U 86030B   19321.82893640 +.00000020 +00000-0 +16063-4 0  9998
2 16682 074.0285 043.4639 0014339 169.8726 322.8047 14.35891783757733
Epoch (UTC): 17 November 2019 19:53:40
Eccentricity: 0.0014339
inclination: 74.0285°
perigee height: 762 km
apogee height: 782 km
right ascension of ascending node: 43.4639°
argument of perigee: 169.8726°
revolutions per day: 14.35891783
mean anomaly at epoch: 322.8047°
orbit number at epoch: 75773

The dashed part of the orbit path shows where the satellite is in the earth's shadow,  

DLR